Location: Chmeln�
(49.6483°N, 14.9871°E)
Time: 05:58:45
(UTC+00:00)

Cosmos 2263 Rocket - Pass Details

Date: 18 September 2020
Orbit: 822 x 850 km, 71.0° (Epoch: 27 October)

Event Time Altitude Azimuth Distance (km) Brightness Sun altitude
Rises 17:48:15 0° 199° (SSW) 3,344 5.4 -7.6°
Reaches altitude 10° 17:50:40 10° 197° (SSW) 2,417 4.7 -8.0°
Maximum altitude 17:56:10 70° 115° (ESE) 882 2.1 -8.9°
Drops below altitude 10° 18:01:44 10° 33° (NNE) 2,446 4.4 -9.7°
Sets 18:04:11 0° 31° (NNE) 3,388 5.2 -10.1°
